User: anonymous   Login
Location: Esterri de Aneo
(42.6284°N, 1.1223°E)
Time: 15:12:00
(UTC+00:00)
Language:

Cosmos-2242 - Orbit

View from above orbital plane
View from above orbital plane
View from above satellite
View from above satellite

Ground track
Ground track

The orbit is defined by the following mean orbital elements,

1 22626U          26042.15752801 +.00000000 +00000-0 +20179-3 0 00006
2 22626  82.5190 292.0941 0017487  38.8168 321.4306 14.96438446    01
Epoch (UTC): 11 February 2026 03:46:50
Eccentricity: 0.0017487
inclination: 82.5190°
perigee height: 566 km
apogee height: 590 km
right ascension of ascending node: 292.0941°
argument of perigee: 38.8168°
revolutions per day: 14.96438446
mean anomaly at epoch: 321.4306°

The dashed part of the orbit path shows where the satellite is in the earth's shadow,  

DLR